Location: Brachbach
(49.1847°N, 9.7240°E)
Time: 17:53:27
(UTC+00:00)

ITAMSAT 1 - Visible Passes

Search period start: 07 March 2026 00:00
Search period end: 17 March 2026 00:00
Orbit: 781 x 794 km, 98.7° (Epoch: 7 March)

Date Brightness Start Highest point End Pass type
(mag) Time Alt. Az. Time Alt. Az. Time Alt. Az.
7 Mar 9.6 18:28:18 10° ENE 18:29:04 11° NE 18:30:09 10° NE visible
7 Mar 8.5 20:08:58 40° NNE 20:08:58 40° NNE 20:12:27 10° N visible
7 Mar 10.1 21:49:37 17° NW 21:49:37 17° NW 21:51:17 10° NW visible
8 Mar 8.7 19:38:07 30° NE 19:38:07 30° NE 19:41:48 10° N visible
8 Mar 9.5 21:18:46 27° NW 21:18:46 27° NW 21:21:27 10° NNW visible
9 Mar 9.1 19:07:17 20° NE 19:07:17 20° NE 19:10:53 10° NNE visible
9 Mar 8.8 20:47:57 40° NNW 20:47:57 40° NNW 20:51:17 10° NNW visible
10 Mar 9.5 18:36:27 12° ENE 18:37:19 12° NE 18:39:19 10° NNE visible
10 Mar 8.3 20:17:07 46° NNE 20:17:07 46° NNE 20:20:54 10° N visible
10 Mar 10.1 21:57:46 16° WNW 21:57:46 16° WNW 21:59:26 10° NW visible
11 Mar 8.5 19:46:16 35° NE 19:46:16 35° NE 19:50:18 10° N visible
11 Mar 9.5 21:26:56 27° NW 21:26:56 27° NW 21:29:45 10° NNW visible
12 Mar 8.9 19:15:26 23° ENE 19:15:29 23° ENE 19:19:28 10° N visible
12 Mar 8.7 20:56:05 42° NW 20:56:05 42° NW 20:59:39 10° NNW visible
13 Mar 9.4 18:44:36 13° ENE 18:45:34 14° NE 18:48:10 10° NNE visible
13 Mar 8.1 20:25:15 54° N 20:25:15 54° N 20:29:19 10° NNW visible
13 Mar 10.2 22:05:55 15° WNW 22:05:55 15° WNW 22:07:32 10° NW visible
14 Mar 8.2 19:54:25 41° NE 19:54:25 41° NE 19:58:46 10° N visible
14 Mar 9.5 21:35:05 25° WNW 21:35:05 25° WNW 21:38:01 10° NNW visible
15 Mar 8.8 19:23:35 26° ENE 19:23:48 26° ENE 19:28:01 10° N visible
15 Mar 8.7 21:04:14 42° NW 21:04:14 42° NW 21:08:00 10° NNW visible
16 Mar 9.3 18:52:45 15° ENE 18:53:49 16° NE 18:56:53 10° NNE visible
16 Mar 7.9 20:33:25 62° N 20:33:25 62° N 20:37:42 10° NNW visible
16 Mar 10.2 22:14:04 13° WNW 22:14:04 13° WNW 22:15:30 10° NW visible
